Погода в Ржавце

Россия / Орловская область     53°00′31″N   36°46′18″E
темп.,
°C
ветер,
м/с
пор.,
м/с
влажн.,
%
обл.,
%
осадки,
мм/ч
давл.,
гПа
погр.,
м
4 марта, чт
чт400:00−1з51190100 0.0 1015632
03:00−3зюз6139389 0.0 1014347
06:00−3зюз7149240 0.0 1012327
09:00−3зюз7158924 0.0 1009423
12:00−1зюз8158613 0.0 1006698
15:000зюз8129553 0.0 1004800
18:00+1з71294100 0.0 1003722
21:000зсз51196100 0.3 1003631
5 марта, пт
пт500:00−2з41094100 0.1 1003342
03:00−3ссз3696100 0.4 1006200
06:00−5ссз2392100 0.0 100840
09:00−6сз249376 0.0 1009104
12:00−4сз24870 0.0 1010290
15:00−2сз238333 0.0 1012454
18:00−5з1189100 0.0 101321
21:00−7ссз1190100 0.0 101521
6 марта, сб
сб600:00−9ссв119293 0.0 101521
03:00−10ссв118966 0.0 101621
06:00−11ююз11900 0.0 101521
09:00−8юз229621 0.1 101697
12:00−5з2392100 0.1 1016393
15:00−5зсз4690100 0.4 1017516
18:00−6зсз359686 0.2 1017127
21:00−9сз498988 0.4 1020196
7 марта, вс
вс700:00−11з479111 0.0 1020110
03:00−10зюз611896 0.0 1018251
06:00−8юз8168478 0.0 1015524
09:00−6юз10188289 0.0 1011783
12:00−4зюз121992100 0.1 10061192
15:00−2зюз122093100 0.9 10041320
18:00−2зсз81396100 1.6 1004817
21:00−6зюз4890100 3.4 1005262
8 марта, пн
пн800:00−6юз5887100 0.1 1004181
03:00−6зюз51192100 0.1 1003358
06:00−7з7168933 0.0 1003603
09:00−7зсз6118762 0.1 1006889
12:00−7сз69790 0.0 1009761
15:00−6зсз58750 0.0 1010922
18:00−9зюз34830 0.0 101140
21:00−11сз339233 0.0 101351